{"data":{"norad_id":67463,"epoch":"2026-09-19T05:39:11.332512Z","epoch_age_seconds":181424,"freshness":"STALE","line1":"1 67463U 26008U   26262.23554783  .00011018  00000+0  40918-3 0  9992","line2":"2 67463  42.9972 192.0770 0000895 277.3394  82.7355 15.27590113 39178","mean_motion":15.27590113,"eccentricity":8.95e-5,"inclination_deg":42.9972,"raan_deg":192.077,"arg_perigee_deg":277.3394,"mean_anomaly_deg":82.7355,"bstar":0.00040918,"rev_number":3917,"period_min":94.266124645964,"perigee_km":482.40474080121,"apogee_km":483.63288769196,"semimajor_km":6861.1558142466,"source":"CELESTRAK","updated_at":"2026-09-20T09:00:43.551659Z"}}